Home > Weather > Ras al-Khaimah > Past weeks

Flag for United Arab Emirates Past Weather in Ras al-Khaimah, Ras al-Khaimah, United Arab Emirates — Yesterday and Last 2 Weeks

Now
99 °F

Passing clouds.


Feels Like: 110 °F
Forecast: 86 / 101 °F
Wind: 20 mph from Southeast

Location: Ras Al Khaimah International Airport

Current Time: Jul 28, 2016 at 12:46:38 PM

Latest Report: Jul 28, 2016 at 12:00 PM


Visibility: N/A

Pressure: 29.56 "Hg

Humidity: 44%

Dew Point: 73 °F

Location of Ras al-KhaimahLocation

Past Weather in Ras al-Khaimah — Graph

°F

Ras al-Khaimah Temperature Yesterday

Maximum temperature yesterday: 100 °F (at 12:00 PM)
Minimum temperature yesterday: 91 °F (at 1:00 AM)
Average temperature yesterday: 96 °F

High & Low Weather Summary for the Past Weeks

 TemperatureHumidityPressure
High115 °F (Jul 15, 1:00 PM)84% (Jul 14, 2:00 AM)29.59 "Hg (Jul 14, 2:00 AM)
Low86 °F (Jul 23, 2:00 AM)11% (Jul 15, 4:00 PM)29.36 "Hg (Jul 16, 4:00 PM)
Average99 °F42%29.47 "Hg
* Reported Jul 13 12:00 PM — Jul 28 12:00 PM, Ras al-Khaimah, Weather by CustomWeather, © 2016

Note: Actual official high and low records may vary slightly from our data, if they occured in-between our weather recording intervals... More about our weather records

Advertising

Ras al-Khaimah Weather History for the Previous 24 Hours

Scroll right to see more
 ConditionsComfort  
Time TempWeatherWind HumidityBarometerVisibility
12:00 PM
Thu, Jul 28
99 °FPassing clouds.20 mph44%29.56 "HgN/A
11:00 AM97 °FSunny.23 mph50%29.59 "Hg10 mi
10:00 AM95 °FSunny.26 mph50%29.56 "Hg10 mi
9:00 AM93 °FSunny.24 mph53%29.56 "Hg10 mi
8:00 AM91 °FSunny.22 mph52%29.56 "Hg10 mi
7:00 AM91 °FSunny.21 mph52%29.56 "Hg10 mi
6:00 AM90 °FSunny.20 mph55%29.53 "Hg10 mi
5:00 AM91 °FClear.10 mph49%29.53 "Hg10 mi
4:00 AM91 °FClear.14 mph49%29.50 "Hg10 mi
3:00 AM90 °FClear.21 mph55%29.50 "Hg10 mi
2:00 AM90 °FClear.20 mph55%29.53 "Hg10 mi
1:00 AM93 °FClear.17 mph44%29.53 "Hg10 mi
12:00 AM91 °FClear.15 mph52%29.53 "Hg10 mi
11:00 PM
Wed, Jul 27
91 °FClear.18 mph52%29.53 "Hg10 mi
10:00 PM93 °FClear.15 mph49%29.53 "Hg10 mi
9:00 PM93 °FClear.16 mph49%29.50 "Hg10 mi
8:00 PM95 °FClear.15 mph44%29.50 "Hg10 mi
7:00 PM97 °FSunny.16 mph42%29.47 "Hg10 mi
6:00 PM99 °FSunny.17 mph42%29.47 "Hg10 mi
5:00 PM100 °FSunny.20 mph42%29.47 "Hg10 mi
4:00 PM100 °FSunny.20 mph42%29.47 "Hg10 mi
3:00 PM100 °FSunny.21 mph45%29.50 "Hg10 mi
2:00 PM100 °FSunny.21 mph45%29.50 "Hg10 mi
1:00 PM100 °FPassing clouds.18 mph42%29.50 "HgN/A
12:00 PM100 °FPassing clouds.18 mph42%29.53 "HgN/A
Weather by CustomWeather, © 2016

See weather overviewHow to use our weather pages